Location: Étang Rond
(42.7927°N, 1.0661°E)
Time: 01:15:55
(UTC+00:00)

NOSS 3-1 (A) - Pass Details

Date: 08 November 2025
Orbit: 621 x 1586 km, 63.4° (Epoch: 02 December)

Event Time Altitude Azimuth Distance (km) Brightness Sun altitude
Exits shadow 05:07:16 10° 217° (SW) 2,073 5.0 -17.0°
Reaches altitude 10° 05:07:20 10° 217° (SW) 2,047 4.9 -17.0°
Maximum altitude 05:11:54 84° 305° (NW) 724 2.8 -16.2°
Drops below altitude 10° 05:17:23 10° 35° (NE) 2,445 5.9 -15.2°
Sets 05:20:08 0° 36° (NE) 3,528 6.8 -14.7°
